Location: Sungai Anya
(2.6167°N, 114.0500°E)
Time: 15:55:41
(UTC+00:00)

Cosmos 1153 Rocket - Pass Details

Date: 29 May 2022
Orbit: 954 x 1005 km, 82.9° (Epoch: 03 July)

Event Time Altitude Azimuth Distance (km) Brightness Sun altitude
Rises 21:12:12 0° 14° (NNE) 3,716 8.1 -15.0°
Reaches altitude 10° 21:14:59 10° 23° (NNE) 2,770 7.6 -14.4°
Maximum altitude 21:20:40 34° 87° (E) 1,577 6.3 -13.0°
Drops below altitude 10° 21:26:20 10° 150° (SSE) 2,770 7.0 -11.7°
Sets 21:29:05 0° 158° (SSE) 3,716 7.5 -11.1°
